| time (UTC) | temp F | wind direction | speed MPH | gust MPH | rain 1hr in | rain 24hr in | rain mn in | humidity % | barometer mb |
| 20260508030031 | 61 | 278 | 1.0 | 2.0 | 0.00 | 0.00 | 0.00 | 38 | 1011.3 |
| 20260508024552 | 62 | 278 | 0.0 | 3.0 | 0.00 | 0.00 | 0.00 | 37 | 1011.1 |
| 20260508023031 | 64 | 284 | 0.0 | 3.0 | 0.00 | 0.00 | 0.00 | 35 | 1010.9 |
| 20260508021530 | 65 | 293 | 3.0 | 5.0 | 0.00 | 0.00 | 0.00 | 33 | 1010.8 |
| 20260508020033 | 67 | 295 | 2.0 | 6.0 | 0.00 | 0.00 | 0.00 | 31 | 1010.7 |
| 20260508014532 | 69 | 282 | 1.0 | 5.0 | 0.00 | 0.00 | 0.00 | 26 | 1010.6 |
| 20260508013032 | 70 | 293 | 5.0 | 10.0 | 0.00 | 0.00 | 0.00 | 23 | 1010.6 |
| 20260508011531 | 72 | 273 | 3.0 | 7.0 | 0.00 | 0.00 | 0.00 | 21 | 1010.5 |
| 20260508010025 | 72 | 297 | 3.0 | 11.0 | 0.00 | 0.00 | 0.00 | 20 | 1010.7 |
| 20260508004538 | 72 | 311 | 7.0 | 14.0 | 0.00 | 0.00 | 0.00 | 19 | 1010.7 |
| 20260508003023 | 72 | 303 | 4.0 | 8.0 | 0.00 | 0.00 | 0.00 | 22 | 1010.7 |
| 20260508001531 | 72 | 336 | 4.0 | 12.0 | 0.00 | 0.00 | 0.00 | 23 | 1010.7 |
| 20260508000020 | 72 | 324 | 7.0 | 11.0 | 0.00 | 0.00 | 0.00 | 25 | 1010.7 |
| 20260507234620 | 72 | 265 | 6.0 | 10.0 | 0.00 | 0.00 | 0.00 | 23 | 1010.7 |
| 20260507233019 | 72 | 245 | 4.0 | 11.0 | 0.00 | 0.00 | 0.00 | 24 | 1010.6 |
| 20260507231516 | 72 | 278 | 5.0 | 12.0 | 0.00 | 0.00 | 0.00 | 26 | 1010.7 |
| 20260507230015 | 71 | 288 | 4.0 | 8.0 | 0.00 | 0.00 | 0.00 | 28 | 1010.8 |
| 20260507224514 | 71 | 333 | 5.0 | 10.0 | 0.00 | 0.00 | 0.00 | 28 | 1010.9 |
| 20260507223011 | 70 | 312 | 8.0 | 15.0 | 0.00 | 0.00 | 0.00 | 28 | 1011.1 |
| 20260507221512 | 71 | 280 | 7.0 | 11.0 | 0.00 | 0.00 | 0.00 | 29 | 1011.2 |
| 20260507220011 | 71 | 291 | 3.0 | 10.0 | 0.00 | 0.00 | 0.00 | 30 | 1011.3 |
| 20260507214505 | 70 | 317 | 5.0 | 10.0 | 0.00 | 0.00 | 0.00 | 30 | 1011.4 |
| 20260507213003 | 70 | 342 | 4.0 | 12.0 | 0.00 | 0.00 | 0.00 | 32 | 1011.6 |
| 20260507211502 | 69 | 285 | 6.0 | 14.0 | 0.00 | 0.00 | 0.00 | 31 | 1011.8 |
| 20260507210111 | 69 | 283 | 7.0 | 13.0 | 0.00 | 0.00 | 0.00 | 32 | 1011.8 |
| 20260507204558 | 68 | 314 | 5.0 | 17.0 | 0.00 | 0.00 | 0.00 | 32 | 1011.9 |
| 20260507203122 | 69 | 99 | 6.0 | 14.0 | 0.00 | 0.00 | 0.00 | 32 | 1012.1 |
| 20260507201553 | 68 | 308 | 8.0 | 14.0 | 0.00 | 0.00 | 0.00 | 33 | 1012.3 |
| 20260507200053 | 68 | 321 | 3.0 | 14.0 | 0.00 | 0.00 | 0.00 | 34 | 1012.2 |
| 20260507194601 | 67 | 349 | 7.0 | 15.0 | 0.00 | 0.00 | 0.00 | 36 | 1012.2 |
| 20260507193047 | 67 | 302 | 6.0 | 14.0 | 0.00 | 0.00 | 0.00 | 34 | 1012.2 |
| 20260507191547 | 66 | 290 | 7.0 | 13.0 | 0.00 | 0.00 | 0.00 | 37 | 1012.3 |
| 20260507190051 | 66 | 321 | 7.0 | 16.0 | 0.00 | 0.00 | 0.00 | 37 | 1012.3 |
| 20260507184539 | 66 | 305 | 8.0 | 13.0 | 0.00 | 0.00 | 0.00 | 37 | 1012.4 |
| 20260507183037 | 65 | 301 | 7.0 | 14.0 | 0.00 | 0.00 | 0.00 | 38 | 1012.4 |
| 20260507181534 | 64 | 264 | 6.0 | 14.0 | 0.00 | 0.00 | 0.00 | 40 | 1012.6 |
| 20260507180038 | 64 | 320 | 4.0 | 11.0 | 0.00 | 0.00 | 0.00 | 44 | 1012.7 |
| 20260507174539 | 63 | 283 | 7.0 | 12.0 | 0.00 | 0.00 | 0.00 | 44 | 1012.7 |
| 20260507171528 | 61 | 299 | 3.0 | 9.0 | 0.00 | 0.00 | 0.00 | 47 | 1013.0 |
| 20260507170030 | 60 | 340 | 4.0 | 8.0 | 0.00 | 0.00 | 0.00 | 51 | 1013.0 |
| 20260507164527 | 61 | 25 | 3.0 | 6.0 | 0.00 | 0.00 | 0.00 | 52 | 1013.1 |
| 20260507163027 | 59 | 303 | 0.0 | 6.0 | 0.00 | 0.00 | 0.00 | 51 | 1013.2 |
| 20260507161525 | 59 | 342 | 1.0 | 3.0 | 0.00 | 0.00 | 0.00 | 54 | 1013.3 |
| 20260507160024 | 57 | 120 | 1.0 | 5.0 | 0.00 | 0.00 | 0.00 | 58 | 1013.3 |
| 20260507154526 | 55 | 138 | 0.0 | 3.0 | 0.00 | 0.00 | 0.00 | 63 | 1013.6 |
| 20260507153022 | 53 | 106 | 2.0 | 6.0 | 0.00 | 0.00 | 0.00 | 67 | 1013.5 |
| 20260507151522 | 52 | 127 | 1.0 | 4.0 | 0.00 | 0.00 | 0.00 | 66 | 1013.7 |
| 20260507150034 | 52 | 121 | 0.0 | 2.0 | 0.00 | 0.00 | 0.00 | 67 | 1013.7 |
| 20260507144522 | 51 | 96 | 1.0 | 4.0 | 0.00 | 0.00 | 0.00 | 68 | 1013.6 |
| 20260507143017 | 50 | 79 | 1.0 | 4.0 | 0.00 | 0.00 | 0.00 | 69 | 1013.4 |
| 20260507141517 | 50 | 129 | 1.0 | 4.0 | 0.00 | 0.00 | 0.00 | 70 | 1013.3 |
| 20260507140016 | 49 | 78 | 3.0 | 6.0 | 0.00 | 0.00 | 0.00 | 70 | 1013.3 |
| 20260507134515 | 49 | 82 | 2.0 | 4.0 | 0.00 | 0.00 | 0.00 | 68 | 1013.4 |
| 20260507133018 | 47 | 123 | 2.0 | 7.0 | 0.00 | 0.00 | 0.00 | 71 | 1013.1 |
| 20260507131515 | 46 | 79 | 0.0 | 2.0 | 0.00 | 0.00 | 0.00 | 71 | 1013.0 |
| 20260507130009 | 46 | 105 | 1.0 | 3.0 | 0.00 | 0.00 | 0.00 | 70 | 1013.1 |
| 20260507124505 | 48 | 294 | 0.0 | 4.0 | 0.00 | 0.00 | 0.00 | 66 | 1012.9 |
| 20260507123003 | 49 | 255 | 2.0 | 5.0 | 0.00 | 0.00 | 0.00 | 63 | 1012.9 |
| 20260507121603 | 49 | 261 | 2.0 | 6.0 | 0.00 | 0.00 | 0.00 | 64 | 1012.8 |
| 20260507120101 | 50 | 281 | 3.0 | 5.0 | 0.00 | 0.00 | 0.00 | 60 | 1012.7 |
| 20260507114610 | 53 | 287 | 2.0 | 6.0 | 0.00 | 0.00 | 0.00 | 56 | 1012.7 |
| 20260507113053 | 52 | 281 | 3.0 | 5.0 | 0.00 | 0.00 | 0.00 | 56 | 1012.6 |
| 20260507111552 | 52 | 303 | 2.0 | 5.0 | 0.00 | 0.00 | 0.00 | 58 | 1012.7 |
| 20260507110049 | 54 | 259 | 3.0 | 5.0 | 0.00 | 0.00 | 0.00 | 53 | 1012.8 |
| 20260507104548 | 54 | 323 | 1.0 | 3.0 | 0.00 | 0.00 | 0.00 | 53 | 1012.6 |
| 20260507103050 | 53 | 210 | 0.0 | 2.0 | 0.00 | 0.00 | 0.00 | 53 | 1012.6 |
| 20260507101645 | 54 | 281 | 1.0 | 2.0 | 0.00 | 0.00 | 0.00 | 51 | 1012.5 |
| 20260507100043 | 54 | 268 | 0.0 | 2.0 | 0.00 | 0.00 | 0.00 | 51 | 1012.7 |
| 20260507094554 | 56 | 354 | 1.0 | 5.0 | 0.00 | 0.00 | 0.00 | 48 | 1012.6 |
| 20260507093042 | 56 | 36 | 2.0 | 5.0 | 0.00 | 0.00 | 0.00 | 47 | 1012.6 |
| 20260507091540 | 55 | 355 | 0.0 | 6.0 | 0.00 | 0.00 | 0.00 | 49 | 1012.6 |
| 20260507090037 | 54 | 200 | 0.0 | 1.0 | 0.00 | 0.00 | 0.00 | 52 | 1012.6 |
| 20260507084539 | 55 | 240 | 0.0 | 2.0 | 0.00 | 0.00 | 0.00 | 51 | 1012.5 |
| 20260507083032 | 56 | 235 | 0.0 | 3.0 | 0.00 | 0.00 | 0.00 | 48 | 1012.6 |
| 20260507081536 | 58 | 82 | 0.0 | 2.0 | 0.00 | 0.00 | 0.00 | 47 | 1012.8 |
| 20260507080025 | 59 | 349 | 0.0 | 4.0 | 0.00 | 0.00 | 0.00 | 45 | 1012.8 |
| 20260507074522 | 60 | 291 | 3.0 | 8.0 | 0.00 | 0.00 | 0.00 | 43 | 1012.6 |
| 20260507073019 | 61 | 295 | 2.0 | 9.0 | 0.00 | 0.00 | 0.00 | 43 | 1012.7 |
| 20260507071519 | 61 | 297 | 3.0 | 12.0 | 0.00 | 0.00 | 0.00 | 43 | 1012.6 |
| 20260507070020 | 62 | 321 | 3.0 | 9.0 | 0.00 | 0.00 | 0.00 | 42 | 1012.6 |
| 20260507064515 | 62 | 18 | 4.0 | 10.0 | 0.00 | 0.00 | 0.00 | 42 | 1012.6 |
| 20260507063012 | 62 | 329 | 4.0 | 10.0 | 0.00 | 0.00 | 0.00 | 45 | 1012.3 |
| 20260507061511 | 60 | 307 | 2.0 | 5.0 | 0.00 | 0.00 | 0.00 | 50 | 1012.3 |
| 20260507060018 | 61 | 271 | 1.0 | 4.0 | 0.00 | 0.00 | 0.00 | 48 | 1012.2 |
| 20260507054511 | 61 | 217 | 0.0 | 1.0 | 0.00 | 0.00 | 0.00 | 49 | 1012.4 |
| 20260507053009 | 63 | 269 | 0.0 | 1.0 | 0.00 | 0.00 | 0.00 | 44 | 1012.4 |
| 20260507051513 | 64 | 276 | 1.0 | 8.0 | 0.00 | 0.00 | 0.00 | 42 | 1012.4 |
| 20260507050015 | 65 | 276 | 1.0 | 6.0 | 0.00 | 0.00 | 0.00 | 40 | 1012.4 |
| 20260507044507 | 65 | 296 | 3.0 | 6.0 | 0.00 | 0.00 | 0.00 | 39 | 1012.4 |
| 20260507043006 | 66 | 291 | 3.0 | 9.0 | 0.00 | 0.00 | 0.00 | 39 | 1012.4 |
| 20260507041505 | 67 | 302 | 4.0 | 8.0 | 0.00 | 0.00 | 0.00 | 37 | 1012.4 |
| 20260507034503 | 67 | 280 | 2.0 | 6.0 | 0.00 | 0.00 | 0.00 | 38 | 1012.2 |
| 20260507033004 | 67 | 293 | 3.0 | 6.0 | 0.00 | 0.00 | 0.00 | 39 | 1012.0 |
| 20260507031502 | 67 | 298 | 2.0 | 6.0 | 0.00 | 0.00 | 0.00 | 41 | 1011.9 |